星链-3941 (STARLINK-3941 )

导读 | 豆包AI

STARLINK-3941是美国SpaceX星链互联网卫星项目中的一颗卫星,于2022年5月14日发射入轨,属于星链低轨星座组网卫星。它运行在近地轨道,旨在为全球提供低延迟、高速率的宽带互联网服务,尤其覆盖偏远、网络基础设施薄弱区域,助力星链全球卫星互联网组网架构搭建。

Basic Information
目录编号:
52638
目录名称:
STARLINK-3941
国际标识:
2022-052AS
轨道中心:
EARTH
卫星名称:
星链-3941
卫星全名:
星链-3941 (STARLINK-3941 )
卫星状态:
在轨 (已飞行1447 天)
发射日期:
2022-05-14 UTC
国别 :
美国 (US)
星等 :
--
Orbit Information
数据来源 国际轨道数据 AOE轨道数据
星历时间 2026-04-30T20:00:55+0800
11小时前
查看轨道信息
2026-04-27T00:00:00+0800
4天前
查看轨道信息
半长轴 6917.907km 6917.874km
偏心率 0.0001807 0.0001541
轨道倾角 53.219° 53.217°
近地点辐角 86.071° 69.937°
升交点赤经 36.531° 53.740°
平近点角 274.049° 333.474°
近地点 538.519km 538.67km
远地点 541.021km 540.804km
周期 95.438分钟 95.437分钟
每日圈数 15.088315 15.088421
Detailed Information
固有亮度:
5
最大亮度:
2.5
卫星平台:
Starlink v1.5
覆盖范围:
全球
运营商:
太空探索技术公司
运营商所在国:
美国
制造商(研发单位):
太空探索技术公司
制造商所在国:
美国
使用方式:
暂无
Satellite Introduction
星链(Starlink)计划是由太空探索技术公司(SpaceX)提出的一个巨型低轨卫星互联网星座项目,计划在2019年至2024年间在太空搭建由约1.2万颗卫星组成的“星链”网络,其中1584颗将部署在地球上空550千米处的近地轨道,并从2020年开始工作。该卫星仍在工作。
2D Orbit Map
3D Orbit Map
Orbit Altitude Analysis Chart
Orbit Inclination Analysis Chart
Orbit Comprehensive Analysis Chart
View Comprehensive Chart